Tracking 19164 objects as of 21-May-2018
HD Live streaming from Space Station
objects crossing your sky now

ARIANE 5 DEB (SYLDA)

Track ARIANE 5 DEB (SYLDA) now!


NORAD ID: 27511
Int'l Code: 2002-040D
Perigee: 578.5 km
Apogee: 35,840.5 km
Inclination: 5.4 °
Period: 639.2 minutes
Semi major axis: 24580 km
RCS: 17.8779 m2 (large)
Launch date: August 28, 2002
Source: France (FR)
Launch site: FRENCH GUIANA (FRGUI)

Note: This is SATELLITE DEBRIS
aabbcc
Your satellite tracking list
Your tracking list is empty




NASA's NSSDC Master Catalog

Two Line Element Set (TLE):
1 27511U 02040D   18140.55813247 -.00000034 +00000-0 +83217-3 0  9993
2 27511 005.4182 119.3881 7172762 144.1319 287.0989 02.25277319129287
Source of the keplerian elements: AFSPC